Home > Weather > Sarasota > Past weeks

Flag for USA Past Weather in Sarasota, Florida, USA — Yesterday and Last 2 Weeks

Now
76 °F

Clear.


Feels Like: 77 °F
Forecast: 73 / 87 °F
Wind: 8 mph from East

Location: Sarasota-Bradenton International Airport

Current Time: May 25, 2016 at 1:20:29 AM

Latest Report: May 25, 2016 at 12:53 AM


Visibility: 10 mi

Pressure: 30.12 "Hg

Humidity: 77%

Dew Point: 68 °F

Location of SarasotaLocation

Past Weather in Sarasota — Graph

°F

Sarasota Temperature Yesterday

Maximum temperature yesterday: 89 °F (at 12:53 PM)
Minimum temperature yesterday: 66 °F (at 5:53 AM)
Average temperature yesterday: 79 °F

High & Low Weather Summary for the Past Weeks

 TemperatureHumidityPressure
High90 °F (May 20, 4:53 PM)91% (May 17, 6:53 AM)30.16 "Hg (May 17, 6:53 AM)
Low65 °F (May 10, 6:53 AM)30% (May 24, 12:53 PM)29.88 "Hg (May 23, 3:53 AM)
Average79 °F69%30.02 "Hg
* Reported May 9 11:53 PM — May 24 11:53 PM, Sarasota, Weather by CustomWeather, © 2016

Note: Actual official high and low records may vary slightly from our data, if they occured in-between our weather recording intervals... More about our weather records

Advertising

Sarasota Weather History for the Previous 24 Hours

Scroll right to see more
 ConditionsComfort  
Time TempWeatherWind HumidityBarometerVisibility
11:53 PM
Tue, May 24
77 °FClear.8 mph71%30.12 "Hg10 mi
10:53 PM77 °FClear.6 mph66%30.11 "Hg10 mi
9:53 PM78 °FClear.5 mph58%30.10 "Hg10 mi
8:53 PM77 °FSunny.6 mph62%30.08 "Hg10 mi
7:53 PM82 °FSunny.8 mph53%30.06 "Hg10 mi
6:53 PM85 °FSunny.8 mph45%30.05 "Hg10 mi
5:53 PM86 °FSunny.9 mph43%30.06 "Hg10 mi
4:53 PM87 °FSunny.14 mph45%30.06 "Hg10 mi
3:53 PM88 °FSunny.13 mph45%30.07 "Hg10 mi
2:53 PM88 °FSunny.14 mph43%30.08 "Hg10 mi
1:53 PM89 °FSunny.10 mph35%30.08 "Hg10 mi
12:53 PM89 °FSunny.5 mph30%30.09 "Hg10 mi
11:53 AM87 °FSunny.3 mph36%30.09 "Hg10 mi
9:53 AM83 °FSunny.5 mph50%30.07 "Hg10 mi
8:53 AM79 °FSunny.3 mph58%30.05 "Hg10 mi
7:53 AM74 °FSunny.3 mph67%30.03 "Hg10 mi
6:53 AM68 °FClear.5 mph78%30.01 "Hg10 mi
5:53 AM66 °FClear.No wind81%30.01 "Hg10 mi
4:53 AM67 °FClear.No wind76%30.00 "Hg10 mi
3:53 AM69 °FClear.3 mph76%29.99 "Hg10 mi
2:53 AM69 °FClear.No wind73%30.00 "Hg10 mi
1:53 AM71 °FClear.3 mph68%30.01 "Hg10 mi
Weather by CustomWeather, © 2016

See weather overviewHow to use our weather pages